Location: ?????
(37.7324°N, 23.9257°E)
Time: 21:11:23
(UTC+00:00)

OAO 2 Rocket - Pass Details

Date: 29 November 2020
Orbit: 676 x 745 km, 35.0° (Epoch: 19 January)

Event Time Altitude Azimuth Distance (km) Brightness Sun altitude
Exits shadow 04:37:07 - 268° (W) 2,290 5.4 -8.4°
Reaches altitude 10° 04:37:30 10° 268° (W) 2,150 5.3 -8.4°
Maximum altitude 04:42:25 56° 191° (S) 839 3.8 -7.4°
Drops below altitude 10° 04:47:27 10° 113° (ESE) 2,193 7.7 -6.5°
Sets 04:49:56 0° 109° (ESE) 3,124 9.5 -6.1°
